WXM80 ListenWXM80 Stop

You find our weather info also at:

UK Metoffice

WeatherCloud

Weather Underground

Northeastern Weather Network

AWEKAS

Citizen Weather Observer Program (CWOP)

HAMweather, WeatherForYou, PWS Weather


Weather Underground History page Text

Daily Summary for March 20, 2017 Units:  English    Metric   Both
« Previous Day
Next Day »
Daily Weekly Monthly Yearly Custom
  High: Low: Average:
Temperature: 52.0 °F 32.5 °F 41.9 °F
Dew Point: 29.5 °F 20.2 °F 24.3 °F
Humidity: 79 % 30 % 52 %
Wind Speed: 8.0 mph 0.0 mph 2.7 mph
Wind Gust: 12.0 mph - -
Wind:- - WNW
Pressure: 30.11 in 29.93 in -
Precipitation: 0.00 in    
Historical Graphs
 
 
Tabular Data for March 20, 2017
Time Temperature Dew Point Pressure Wind Wind Speed Wind Gust Humidity Rainfall Rate (Hourly)
00:01 32.9 °F 26.8 °F 30.09 in NW 0.9 mph 2.3 mph 78 % 0.00 in
00:06 32.9 °F 26.8 °F 30.10 in NW 0.6 mph 1.2 mph 78 % 0.00 in
00:11 32.9 °F 27.1 °F 30.09 in Calm   1.0 mph 79 % 0.00 in
00:16 32.8 °F 27.0 °F 30.09 in Calm     79 % 0.00 in
00:21 32.8 °F 27.0 °F 30.09 in NW 0.1 mph 2.3 mph 79 % 0.00 in
00:26 32.8 °F 27.0 °F 30.09 in NW 0.4 mph 2.3 mph 79 % 0.00 in
00:31 32.7 °F 26.9 °F 30.09 in Calm   1.2 mph 79 % 0.00 in
00:36 32.6 °F 26.8 °F 30.09 in NW 1.0 mph 2.3 mph 79 % 0.00 in
00:41 32.5 °F 26.7 °F 30.08 in NW 2.6 mph 3.5 mph 79 % 0.00 in
00:47 32.5 °F 26.4 °F 30.08 in NW 1.0 mph 2.3 mph 78 % 0.00 in
00:52 32.5 °F 26.4 °F 30.09 in NW 2.8 mph 3.5 mph 78 % 0.00 in
00:57 32.5 °F 26.4 °F 30.08 in WNW 2.0 mph 3.5 mph 78 % 0.00 in
00:58 32.5 °F 26.4 °F 30.08 in WNW 2.1 mph 3.5 mph 78 % 0.00 in
01:03 32.5 °F 26.4 °F 30.08 in WNW 2.6 mph 3.5 mph 78 % 0.00 in
01:08 32.6 °F 26.5 °F 30.08 in WNW 2.9 mph 3.5 mph 78 % 0.00 in
01:13 32.7 °F 26.3 °F 30.08 in WNW 2.2 mph 3.5 mph 77 % 0.00 in
01:18 32.8 °F 26.1 °F 30.08 in WNW 1.4 mph 4.6 mph 76 % 0.00 in
01:23 33.0 °F 25.9 °F 30.09 in WNW 2.9 mph 5.0 mph 75 % 0.00 in
01:28 33.2 °F 26.1 °F 30.08 in WNW 2.4 mph 3.5 mph 75 % 0.00 in
01:33 33.4 °F 26.0 °F 30.08 in WNW 2.7 mph 4.6 mph 74 % 0.00 in
01:38 33.6 °F 25.9 °F 30.08 in NNW 2.0 mph 8.0 mph 73 % 0.00 in
01:43 33.8 °F 25.7 °F 30.08 in NW 1.1 mph 3.5 mph 72 % 0.00 in
01:48 34.0 °F 25.9 °F 30.09 in WNW 2.3 mph 4.6 mph 72 % 0.00 in
01:53 34.3 °F 25.9 °F 30.09 in NW 2.0 mph 5.0 mph 71 % 0.00 in
01:58 34.5 °F 25.7 °F 30.09 in NW 3.8 mph 5.8 mph 70 % 0.00 in
02:03 34.7 °F 25.6 °F 30.09 in WNW 2.8 mph 5.8 mph 69 % 0.00 in
02:08 34.9 °F 25.4 °F 30.09 in NW 2.9 mph 5.8 mph 68 % 0.00 in
02:13 35.0 °F 25.5 °F 30.09 in NW 1.9 mph 5.8 mph 68 % 0.00 in
02:18 35.1 °F 25.6 °F 30.09 in WNW 2.9 mph 4.6 mph 68 % 0.00 in
02:23 35.2 °F 25.3 °F 30.09 in NNW 4.3 mph 6.0 mph 67 % 0.00 in
02:28 35.2 °F 25.3 °F 30.08 in WNW 3.0 mph 7.0 mph 67 % 0.00 in
02:33 35.3 °F 25.1 °F 30.08 in NW 1.8 mph 5.8 mph 66 % 0.00 in
02:38 35.3 °F 25.1 °F 30.08 in WNW 3.3 mph 6.0 mph 66 % 0.00 in
02:39 35.3 °F 25.1 °F 30.08 in WNW 3.8 mph 5.8 mph 66 % 0.00 in
02:44 35.4 °F 25.2 °F 30.08 in NW 2.2 mph 4.6 mph 66 % 0.00 in
02:49 35.4 °F 25.2 °F 30.08 in NW 3.0 mph 5.8 mph 66 % 0.00 in
02:54 35.5 °F 24.9 °F 30.08 in WNW 4.3 mph 9.2 mph 65 % 0.00 in
02:59 35.5 °F 25.3 °F 30.08 in NNW 2.6 mph 4.6 mph 66 % 0.00 in
03:04 35.5 °F 25.3 °F 30.08 in NNW 3.6 mph 9.2 mph 66 % 0.00 in
03:09 35.5 °F 25.3 °F 30.08 in NW 4.0 mph 5.8 mph 66 % 0.00 in
03:14 35.4 °F 25.2 °F 30.08 in NW 2.5 mph 5.8 mph 66 % 0.00 in
03:19 35.4 °F 24.4 °F 30.08 in NW 1.5 mph 5.8 mph 64 % 0.00 in
03:24 35.4 °F 24.4 °F 30.08 in NW 4.2 mph 8.1 mph 64 % 0.00 in
03:29 35.4 °F 24.4 °F 30.08 in NW 1.5 mph 3.5 mph 64 % 0.00 in
03:34 35.3 °F 24.3 °F 30.08 in NW 3.5 mph 6.9 mph 64 % 0.00 in
03:39 35.2 °F 23.9 °F 30.08 in North 3.0 mph 6.0 mph 63 % 0.00 in
03:44 35.2 °F 23.9 °F 30.08 in NNW 2.6 mph 4.0 mph 63 % 0.00 in
03:49 35.1 °F 24.1 °F 30.08 in NW 2.7 mph 5.8 mph 64 % 0.00 in
03:54 35.1 °F 23.8 °F 30.08 in NNW 3.6 mph 5.0 mph 63 % 0.00 in
03:59 35.0 °F 23.3 °F 30.08 in North 3.8 mph 4.6 mph 62 % 0.00 in
04:04 34.9 °F 23.6 °F 30.08 in NNW 4.1 mph 4.1 mph 63 % 0.00 in
04:09 34.8 °F 23.5 °F 30.07 in NW 3.2 mph 5.8 mph 63 % 0.00 in
04:14 34.8 °F 23.5 °F 30.08 in NW 3.4 mph 4.6 mph 63 % 0.00 in
04:19 34.7 °F 23.0 °F 30.07 in NW 5.1 mph 6.9 mph 62 % 0.00 in
04:20 34.7 °F 23.0 °F 30.08 in NW 3.4 mph 7.0 mph 62 % 0.00 in
04:25 34.6 °F 22.9 °F 30.07 in NNW 1.4 mph 3.5 mph 62 % 0.00 in
04:30 34.5 °F 22.4 °F 30.07 in NNW 2.2 mph 5.8 mph 61 % 0.00 in
04:35 34.5 °F 22.8 °F 30.07 in NNW 2.2 mph 6.9 mph 62 % 0.00 in
04:40 34.4 °F 22.7 °F 30.07 in North 3.7 mph 5.0 mph 62 % 0.00 in
04:45 34.3 °F 22.6 °F 30.07 in North 3.1 mph 6.9 mph 62 % 0.00 in
04:50 34.2 °F 22.5 °F 30.07 in NNW 4.6 mph 6.9 mph 62 % 0.00 in
04:55 34.1 °F 22.4 °F 30.08 in North 2.6 mph 6.0 mph 62 % 0.00 in
05:00 34.1 °F 22.4 °F 30.08 in North 3.0 mph 8.1 mph 62 % 0.00 in
05:05 34.0 °F 22.3 °F 30.08 in NNW 3.1 mph 5.0 mph 62 % 0.00 in
05:10 34.0 °F 22.7 °F 30.08 in NNW 3.3 mph 3.5 mph 63 % 0.00 in
05:15 33.9 °F 22.2 °F 30.08 in North 3.8 mph 5.0 mph 62 % 0.00 in
05:20 33.8 °F 22.5 °F 30.08 in NW 2.7 mph 4.6 mph 63 % 0.00 in
05:25 33.7 °F 22.4 °F 30.08 in WNW 2.6 mph 4.6 mph 63 % 0.00 in
05:30 33.7 °F 22.4 °F 30.08 in NW 3.8 mph 6.9 mph 63 % 0.00 in
05:35 33.6 °F 22.3 °F 30.08 in North 3.4 mph 4.6 mph 63 % 0.00 in
05:40 33.6 °F 22.7 °F 30.08 in Calm   3.5 mph 64 % 0.00 in
05:45 33.5 °F 23.0 °F 30.08 in NW 1.6 mph 6.9 mph 65 % 0.00 in
05:50 33.4 °F 22.5 °F 30.08 in NW 3.4 mph 6.9 mph 64 % 0.00 in
05:55 33.4 °F 22.9 °F 30.08 in NW 2.3 mph 3.5 mph 65 % 0.00 in
06:00 33.4 °F 22.5 °F 30.08 in NNW 3.8 mph 5.8 mph 64 % 0.00 in
06:06 33.4 °F 22.9 °F 30.08 in NW 2.9 mph 4.0 mph 65 % 0.00 in
06:11 33.4 °F 22.9 °F 30.08 in NW 2.6 mph 4.6 mph 65 % 0.00 in
06:16 33.3 °F 22.8 °F 30.08 in NW 1.4 mph 4.6 mph 65 % 0.00 in
06:21 33.3 °F 22.8 °F 30.08 in NW 3.3 mph 6.9 mph 65 % 0.00 in
06:26 33.3 °F 22.8 °F 30.08 in North 5.0 mph 5.0 mph 65 % 0.00 in
06:31 33.3 °F 22.8 °F 30.08 in NW 2.2 mph 5.8 mph 65 % 0.00 in
06:36 33.4 °F 22.9 °F 30.08 in North 1.9 mph 4.6 mph 65 % 0.00 in
06:41 33.4 °F 23.3 °F 30.08 in NW 1.9 mph 4.6 mph 66 % 0.00 in
06:46 33.3 °F 23.2 °F 30.09 in Calm   1.0 mph 66 % 0.00 in
06:51 33.3 °F 23.2 °F 30.09 in North 2.1 mph 5.8 mph 66 % 0.00 in
06:56 33.2 °F 23.1 °F 30.09 in NNW 0.1 mph 1.2 mph 66 % 0.00 in
07:01 33.2 °F 23.1 °F 30.08 in NW 1.9 mph 3.5 mph 66 % 0.00 in
07:06 33.2 °F 23.1 °F 30.08 in Calm     66 % 0.00 in
07:11 33.2 °F 23.1 °F 30.09 in Calm     66 % 0.00 in
07:16 33.2 °F 23.1 °F 30.09 in NNW 3.8 mph 5.0 mph 66 % 0.00 in
07:21 33.2 °F 23.1 °F 30.09 in WNW 4.9 mph 9.2 mph 66 % 0.00 in
07:26 33.4 °F 23.3 °F 30.09 in WNW 3.5 mph 10.0 mph 66 % 0.00 in
07:31 33.6 °F 23.4 °F 30.09 in NW 4.4 mph 5.8 mph 66 % 0.00 in
07:36 33.8 °F 23.6 °F 30.09 in NW 1.8 mph 5.8 mph 66 % 0.00 in
07:41 34.1 °F 23.9 °F 30.10 in WNW 3.8 mph 7.0 mph 66 % 0.00 in
07:47 34.3 °F 23.7 °F 30.10 in WNW 2.7 mph 6.9 mph 65 % 0.00 in
07:52 34.6 °F 24.0 °F 30.10 in NW 6.3 mph 11.5 mph 65 % 0.00 in
07:57 34.9 °F 24.3 °F 30.10 in NW 4.2 mph 10.4 mph 65 % 0.00 in
08:02 35.2 °F 24.6 °F 30.10 in NW 3.3 mph 6.9 mph 65 % 0.00 in
08:07 35.4 °F 24.4 °F 30.10 in WNW 5.0 mph 8.1 mph 64 % 0.00 in
08:12 35.5 °F 23.8 °F 30.10 in NNE 5.7 mph 9.2 mph 62 % 0.00 in
08:17 35.7 °F 24.3 °F 30.10 in WNW 3.4 mph 6.0 mph 63 % 0.00 in
08:22 35.9 °F 24.1 °F 30.10 in WNW 5.1 mph 8.1 mph 62 % 0.00 in
08:27 36.1 °F 23.9 °F 30.11 in North 4.2 mph 8.1 mph 61 % 0.00 in
08:32 36.4 °F 24.2 °F 30.11 in West 5.8 mph 10.4 mph 61 % 0.00 in
08:37 36.6 °F 24.0 °F 30.11 in NW 3.7 mph 5.0 mph 60 % 0.00 in
08:42 36.8 °F 23.8 °F 30.11 in NW 6.1 mph 10.4 mph 59 % 0.00 in
08:47 37.1 °F 24.1 °F 30.10 in WNW 5.2 mph 10.0 mph 59 % 0.00 in
08:52 37.3 °F 24.7 °F 30.11 in NNW 3.6 mph 11.0 mph 60 % 0.00 in
08:57 37.6 °F 24.1 °F 30.11 in North 3.8 mph 8.1 mph 58 % 0.00 in
09:02 38.0 °F 24.5 °F 30.10 in NW 3.2 mph 9.2 mph 58 % 0.00 in
09:08 38.2 °F 24.3 °F 30.10 in NNW 5.0 mph 8.0 mph 57 % 0.00 in
09:13 38.5 °F 24.6 °F 30.10 in NW 3.8 mph 6.9 mph 57 % 0.00 in
09:18 38.6 °F 24.7 °F 30.10 in NNW 3.5 mph 6.0 mph 57 % 0.00 in
09:23 38.8 °F 24.4 °F 30.10 in NW 3.4 mph 8.1 mph 56 % 0.00 in
09:28 38.9 °F 24.9 °F 30.10 in NNW 3.0 mph 5.0 mph 57 % 0.00 in
09:33 39.2 °F 24.8 °F 30.10 in NW 3.5 mph 6.9 mph 56 % 0.00 in
09:38 39.4 °F 25.0 °F 30.10 in NNW 3.0 mph 7.0 mph 56 % 0.00 in
09:43 39.7 °F 24.8 °F 30.10 in NNW 3.0 mph 7.0 mph 55 % 0.00 in
09:48 39.8 °F 24.5 °F 30.10 in NW 3.0 mph 12.0 mph 54 % 0.00 in
09:53 40.0 °F 25.1 °F 30.10 in NW 5.0 mph 8.0 mph 55 % 0.00 in
09:58 40.3 °F 25.8 °F 30.10 in NW 4.5 mph 6.0 mph 56 % 0.00 in
10:03 40.6 °F 25.7 °F 30.10 in WNW 2.7 mph 6.9 mph 55 % 0.00 in
10:08 40.8 °F 25.0 °F 30.10 in NW 2.5 mph 5.8 mph 53 % 0.00 in
10:13 40.9 °F 25.1 °F 30.10 in NW 3.0 mph 6.9 mph 53 % 0.00 in
10:18 41.1 °F 25.3 °F 30.10 in NW 2.8 mph 8.1 mph 53 % 0.00 in
10:23 41.3 °F 25.4 °F 30.10 in WNW 3.4 mph 9.2 mph 53 % 0.00 in
10:28 41.6 °F 25.7 °F 30.09 in WNW 3.7 mph 6.9 mph 53 % 0.00 in
10:33 42.0 °F 25.6 °F 30.09 in NW 6.7 mph 10.0 mph 52 % 0.00 in
10:38 42.4 °F 26.0 °F 30.09 in WNW 4.8 mph 8.1 mph 52 % 0.00 in
10:43 42.9 °F 26.9 °F 30.08 in WNW 2.9 mph 5.8 mph 53 % 0.00 in
10:48 43.3 °F 26.4 °F 30.08 in WNW 3.5 mph 4.6 mph 51 % 0.00 in
10:53 43.7 °F 25.8 °F 30.08 in NNW 2.1 mph 4.6 mph 49 % 0.00 in
10:58 44.1 °F 26.6 °F 30.08 in NW 4.1 mph 5.0 mph 50 % 0.00 in
11:03 44.5 °F 26.5 °F 30.07 in West 5.3 mph 5.8 mph 49 % 0.00 in
11:08 44.7 °F 28.1 °F 30.07 in WNW 3.4 mph 3.5 mph 52 % 0.00 in
11:13 44.9 °F 27.8 °F 30.07 in NNW 2.6 mph 3.5 mph 51 % 0.00 in
11:18 45.3 °F 27.2 °F 30.07 in North 2.3 mph 3.5 mph 49 % 0.00 in
11:23 45.8 °F 27.7 °F 30.07 in NNW 4.4 mph 5.8 mph 49 % 0.00 in
11:28 46.5 °F 27.8 °F 30.07 in North 3.5 mph 5.0 mph 48 % 0.00 in
11:33 47.0 °F 27.8 °F 30.07 in NW 3.9 mph 4.0 mph 47 % 0.00 in
11:39 47.4 °F 26.0 °F 30.06 in NW 1.9 mph 6.9 mph 43 % 0.00 in
11:44 47.8 °F 29.5 °F 30.06 in NNW 2.7 mph 4.6 mph 49 % 0.00 in
11:49 48.1 °F 28.3 °F 30.06 in NNW 2.7 mph 5.8 mph 46 % 0.00 in
11:54 48.7 °F 27.7 °F 30.05 in NNW 3.2 mph 8.1 mph 44 % 0.00 in
11:59 48.9 °F 28.5 °F 30.05 in WNW 2.0 mph 6.9 mph 45 % 0.00 in
12:04 48.8 °F 27.3 °F 30.04 in NNW 4.1 mph 5.8 mph 43 % 0.00 in
12:09 48.6 °F 26.5 °F 30.04 in NW 4.2 mph 6.9 mph 42 % 0.00 in
12:14 48.6 °F 26.5 °F 30.04 in NW 3.2 mph 4.6 mph 42 % 0.00 in
12:19 48.8 °F 26.7 °F 30.04 in NNW 2.3 mph 3.5 mph 42 % 0.00 in
12:24 49.0 °F 25.7 °F 30.04 in WNW 2.7 mph 5.8 mph 40 % 0.00 in
12:29 48.7 °F 24.8 °F 30.04 in WNW 3.3 mph 5.0 mph 39 % 0.00 in
12:34 48.7 °F 26.6 °F 30.03 in NNE 2.0 mph 6.0 mph 42 % 0.00 in
12:39 49.0 °F 26.9 °F 30.03 in WSW 1.8 mph 3.5 mph 42 % 0.00 in
12:44 49.0 °F 23.8 °F 30.04 in West 2.4 mph 6.0 mph 37 % 0.00 in
12:49 49.0 °F 25.1 °F 30.03 in NW 2.3 mph 6.0 mph 39 % 0.00 in
12:55 49.3 °F 24.1 °F 30.03 in North 2.2 mph 5.0 mph 37 % 0.00 in
13:00 49.5 °F 22.3 °F 30.03 in West 2.1 mph 8.1 mph 34 % 0.00 in
13:05 49.3 °F 22.8 °F 30.03 in WNW 2.0 mph 4.6 mph 35 % 0.00 in
13:10 49.4 °F 22.2 °F 30.03 in WNW 2.1 mph 4.6 mph 34 % 0.00 in
13:15 49.7 °F 25.7 °F 30.02 in WNW 4.4 mph 6.9 mph 39 % 0.00 in
13:20 50.0 °F 22.7 °F 30.02 in SW 1.6 mph 4.0 mph 34 % 0.00 in
13:22 50.1 °F 22.8 °F 30.02 in NW 5.0 mph 5.8 mph 34 % 0.00 in
13:28 50.2 °F 22.9 °F 30.02 in WSW 2.5 mph 9.2 mph 34 % 0.00 in
13:33 50.5 °F 23.9 °F 30.02 in West 3.0 mph 7.0 mph 35 % 0.00 in
13:38 50.9 °F 23.5 °F 30.02 in WNW 3.0 mph 6.0 mph 34 % 0.00 in
13:43 51.2 °F 25.1 °F 30.02 in NW 2.0 mph 6.0 mph 36 % 0.00 in
13:48 51.5 °F 23.3 °F 30.02 in NW 5.0 mph 8.0 mph 33 % 0.00 in
13:53 51.5 °F 25.4 °F 30.02 in WNW 5.0 mph 8.0 mph 36 % 0.00 in
13:58 51.4 °F 23.9 °F 30.02 in West 6.9 mph 8.1 mph 34 % 0.00 in
14:03 51.4 °F 24.6 °F 30.02 in WNW 2.0 mph 10.0 mph 35 % 0.00 in
14:04 51.4 °F 24.6 °F 30.02 in West 0.7 mph 5.8 mph 35 % 0.00 in
14:09 51.4 °F 23.2 °F 30.02 in WSW 5.4 mph 8.0 mph 33 % 0.00 in
14:14 51.4 °F 22.5 °F 30.02 in NW 5.7 mph 8.1 mph 32 % 0.00 in
14:19 51.4 °F 23.2 °F 30.01 in NW 5.9 mph 9.2 mph 33 % 0.00 in
14:24 51.5 °F 22.6 °F 30.01 in West 3.2 mph 5.8 mph 32 % 0.00 in
14:29 51.6 °F 23.4 °F 30.01 in WNW 7.2 mph 11.5 mph 33 % 0.00 in
14:34 51.7 °F 24.2 °F 30.01 in WNW 2.3 mph 6.9 mph 34 % 0.00 in
14:39 51.8 °F 23.6 °F 30.01 in NW 5.6 mph 10.4 mph 33 % 0.00 in
14:45 51.8 °F 22.8 °F 30.01 in West 4.0 mph 6.9 mph 32 % 0.00 in
14:50 51.9 °F 25.1 °F 30.01 in NW 3.8 mph 9.0 mph 35 % 0.00 in
14:55 52.0 °F 23.0 °F 30.01 in WNW 8.0 mph 11.5 mph 32 % 0.00 in
15:00 51.9 °F 24.4 °F 30.00 in WNW 2.7 mph 11.5 mph 34 % 0.00 in
15:05 52.0 °F 23.8 °F 30.00 in NNW 4.6 mph 8.1 mph 33 % 0.00 in
15:10 52.0 °F 23.8 °F 30.00 in NNW 3.6 mph 5.8 mph 33 % 0.00 in
15:15 52.0 °F 23.0 °F 30.00 in WNW 5.0 mph 9.2 mph 32 % 0.00 in
15:20 51.9 °F 23.7 °F 30.00 in WNW 6.0 mph 10.4 mph 33 % 0.00 in
15:25 51.8 °F 24.3 °F 29.99 in NW 5.7 mph 9.2 mph 34 % 0.00 in
15:30 51.8 °F 23.6 °F 30.00 in West 5.7 mph 10.4 mph 33 % 0.00 in
15:35 51.6 °F 23.4 °F 29.99 in WNW 5.9 mph 10.4 mph 33 % 0.00 in
15:40 51.5 °F 24.7 °F 29.99 in WNW 2.7 mph 5.0 mph 35 % 0.00 in
15:45 51.4 °F 22.5 °F 29.99 in WNW 6.8 mph 10.4 mph 32 % 0.00 in
15:50 51.4 °F 22.5 °F 29.98 in WSW 7.2 mph 10.4 mph 32 % 0.00 in
15:51 51.4 °F 22.5 °F 29.98 in WNW 5.9 mph 10.4 mph 32 % 0.00 in
15:56 51.5 °F 23.3 °F 29.98 in WNW 6.3 mph 11.5 mph 33 % 0.00 in
16:01 51.5 °F 23.3 °F 29.98 in WNW 4.4 mph 7.0 mph 33 % 0.00 in
16:06 51.5 °F 22.6 °F 29.98 in WNW 6.3 mph 10.4 mph 32 % 0.00 in
16:11 51.5 °F 23.3 °F 29.98 in WNW 5.8 mph 9.2 mph 33 % 0.00 in
16:16 51.3 °F 23.1 °F 29.98 in WNW 5.4 mph 11.5 mph 33 % 0.00 in
16:21 51.2 °F 23.8 °F 29.98 in WNW 3.1 mph 5.0 mph 34 % 0.00 in
16:26 51.4 °F 23.2 °F 29.98 in NW 4.4 mph 8.1 mph 33 % 0.00 in
16:31 51.5 °F 22.6 °F 29.98 in WNW 5.6 mph 8.1 mph 32 % 0.00 in
16:36 51.5 °F 24.0 °F 29.97 in West 3.2 mph 6.9 mph 34 % 0.00 in
16:41 51.6 °F 21.9 °F 29.97 in West 2.0 mph 6.0 mph 31 % 0.00 in
16:46 51.7 °F 22.0 °F 29.97 in West 3.8 mph 6.9 mph 31 % 0.00 in
16:51 51.7 °F 21.2 °F 29.97 in WNW 4.3 mph 6.9 mph 30 % 0.00 in
16:56 51.5 °F 22.6 °F 29.97 in WNW 3.1 mph 5.8 mph 32 % 0.00 in
17:01 51.2 °F 22.3 °F 29.96 in WNW 3.4 mph 5.0 mph 32 % 0.00 in
17:06 50.9 °F 22.1 °F 29.96 in WNW 4.9 mph 8.1 mph 32 % 0.00 in
17:11 50.8 °F 22.0 °F 29.96 in NW 4.4 mph 6.9 mph 32 % 0.00 in
17:16 50.6 °F 23.2 °F 29.96 in NW 2.2 mph 3.5 mph 34 % 0.00 in
17:21 50.6 °F 22.5 °F 29.95 in NNW 1.9 mph 3.5 mph 33 % 0.00 in
17:26 50.5 °F 20.9 °F 29.95 in WNW 4.7 mph 6.9 mph 31 % 0.00 in
17:31 50.5 °F 20.2 °F 29.95 in WNW 3.8 mph 4.6 mph 30 % 0.00 in
17:36 50.4 °F 20.9 °F 29.95 in WNW 1.0 mph 3.5 mph 31 % 0.00 in
17:41 50.4 °F 21.6 °F 29.95 in WNW 3.1 mph 4.0 mph 32 % 0.00 in
17:46 50.3 °F 23.0 °F 29.95 in NW 1.1 mph 3.5 mph 34 % 0.00 in
17:51 50.1 °F 22.1 °F 29.95 in WNW 2.9 mph 3.5 mph 33 % 0.00 in
17:56 50.0 °F 22.7 °F 29.95 in WNW 3.2 mph 4.6 mph 34 % 0.00 in
18:01 50.0 °F 22.7 °F 29.95 in WNW 1.4 mph 3.0 mph 34 % 0.00 in
18:06 49.9 °F 22.6 °F 29.94 in WNW 0.2 mph 2.3 mph 34 % 0.00 in
18:11 49.9 °F 23.3 °F 29.94 in WNW 1.4 mph 4.0 mph 35 % 0.00 in
18:16 49.9 °F 22.6 °F 29.94 in NW 2.9 mph 4.0 mph 34 % 0.00 in
18:21 49.9 °F 22.6 °F 29.94 in NW 4.0 mph 5.8 mph 34 % 0.00 in
18:26 49.8 °F 22.5 °F 29.95 in WNW 3.0 mph 6.9 mph 34 % 0.00 in
18:31 49.7 °F 21.7 °F 29.95 in WNW 2.4 mph 3.5 mph 33 % 0.00 in
18:36 49.7 °F 22.4 °F 29.94 in Calm     34 % 0.00 in
18:42 49.6 °F 23.0 °F 29.94 in WNW 0.8 mph 3.5 mph 35 % 0.00 in
18:47 49.4 °F 23.5 °F 29.94 in WNW 1.7 mph 3.5 mph 36 % 0.00 in
18:52 49.1 °F 23.3 °F 29.94 in West 2.4 mph 3.5 mph 36 % 0.00 in
18:57 48.8 °F 23.0 °F 29.95 in West 1.2 mph 2.3 mph 36 % 0.00 in
19:02 48.7 °F 22.9 °F 29.94 in West 0.7 mph 1.2 mph 36 % 0.00 in
19:07 48.5 °F 22.7 °F 29.94 in Calm     36 % 0.00 in
19:12 48.3 °F 23.2 °F 29.93 in Calm     37 % 0.00 in
19:17 48.2 °F 23.7 °F 29.94 in Calm     38 % 0.00 in
19:22 48.0 °F 24.2 °F 29.94 in Calm   1.2 mph 39 % 0.00 in
19:27 47.8 °F 24.6 °F 29.94 in Calm     40 % 0.00 in
19:32 47.5 °F 24.9 °F 29.94 in Calm     41 % 0.00 in
19:37 47.2 °F 24.1 °F 29.94 in Calm     40 % 0.00 in
19:42 46.9 °F 25.0 °F 29.94 in Calm     42 % 0.00 in
19:47 46.5 °F 24.6 °F 29.94 in Calm     42 % 0.00 in
19:52 46.2 °F 24.9 °F 29.94 in Calm     43 % 0.00 in
19:57 45.9 °F 24.6 °F 29.94 in Calm     43 % 0.00 in
20:02 45.5 °F 24.3 °F 29.95 in West 0.4 mph 1.2 mph 43 % 0.00 in
20:07 45.2 °F 25.1 °F 29.94 in Calm     45 % 0.00 in
20:12 44.9 °F 25.3 °F 29.94 in West 0.6 mph 1.2 mph 46 % 0.00 in
20:17 44.4 °F 25.4 °F 29.94 in Calm     47 % 0.00 in
20:22 44.1 °F 25.1 °F 29.94 in Calm     47 % 0.00 in
20:27 43.8 °F 25.4 °F 29.95 in West 0.1 mph   48 % 0.00 in
20:32 43.5 °F 25.1 °F 29.95 in West 0.5 mph 1.2 mph 48 % 0.00 in
20:37 43.1 °F 24.7 °F 29.95 in Calm   1.2 mph 48 % 0.00 in
20:42 42.9 °F 24.5 °F 29.95 in Calm     48 % 0.00 in
20:47 42.7 °F 24.8 °F 29.95 in West 0.6 mph 1.2 mph 49 % 0.00 in
20:52 42.3 °F 25.0 °F 29.95 in West 0.8 mph 1.2 mph 50 % 0.00 in
20:57 42.1 °F 24.3 °F 29.95 in West 0.9 mph 1.2 mph 49 % 0.00 in
21:02 42.0 °F 23.7 °F 29.95 in West 1.5 mph 2.3 mph 48 % 0.00 in
21:07 41.9 °F 23.6 °F 29.96 in West 1.5 mph 3.5 mph 48 % 0.00 in
21:12 41.8 °F 24.0 °F 29.96 in West 1.7 mph 2.3 mph 49 % 0.00 in
21:17 41.8 °F 24.5 °F 29.96 in West 1.0 mph 2.3 mph 50 % 0.00 in
21:23 41.7 °F 23.9 °F 29.96 in West 1.3 mph 2.3 mph 49 % 0.00 in
21:27 41.6 °F 24.3 °F 29.96 in West 1.6 mph 2.3 mph 50 % 0.00 in
21:32 41.5 °F 24.2 °F 29.96 in West 0.4 mph 2.3 mph 50 % 0.00 in
21:37 41.5 °F 24.2 °F 29.96 in West 0.7 mph 3.5 mph 50 % 0.00 in
21:43 41.4 °F 24.1 °F 29.96 in West 1.0 mph 3.0 mph 50 % 0.00 in
21:48 41.3 °F 23.6 °F 29.96 in West 1.3 mph 3.5 mph 49 % 0.00 in
21:53 41.2 °F 23.5 °F 29.96 in West 1.4 mph 3.0 mph 49 % 0.00 in
21:58 41.1 °F 23.4 °F 29.96 in West 1.9 mph 3.5 mph 49 % 0.00 in
22:03 41.1 °F 22.9 °F 29.96 in WSW 2.5 mph 3.5 mph 48 % 0.00 in
22:08 41.1 °F 22.9 °F 29.96 in WSW 2.6 mph 3.5 mph 48 % 0.00 in
22:13 41.1 °F 23.4 °F 29.96 in SW 3.0 mph 5.0 mph 49 % 0.00 in
22:18 41.2 °F 23.0 °F 29.96 in WSW 1.6 mph 3.5 mph 48 % 0.00 in
22:23 41.3 °F 23.1 °F 29.96 in WSW 1.2 mph 2.3 mph 48 % 0.00 in
22:28 41.4 °F 23.2 °F 29.96 in WSW 1.9 mph 3.5 mph 48 % 0.00 in
22:33 41.5 °F 23.2 °F 29.96 in WSW 1.1 mph 2.3 mph 48 % 0.00 in
22:38 41.7 °F 23.9 °F 29.95 in WSW 0.9 mph 2.3 mph 49 % 0.00 in
22:43 41.9 °F 24.6 °F 29.96 in WSW 0.4 mph 1.2 mph 50 % 0.00 in
22:48 42.0 °F 25.2 °F 29.96 in WSW 1.2 mph 2.3 mph 51 % 0.00 in
22:53 42.1 °F 25.3 °F 29.96 in WSW 0.5 mph 2.0 mph 51 % 0.00 in
22:58 42.2 °F 25.3 °F 29.95 in SW 1.3 mph 3.0 mph 51 % 0.00 in
23:03 42.3 °F 25.9 °F 29.95 in SW 1.3 mph 2.3 mph 52 % 0.00 in
23:08 42.4 °F 26.5 °F 29.95 in SW 2.0 mph 3.5 mph 53 % 0.00 in
23:13 42.4 °F 26.5 °F 29.95 in SW 0.6 mph 2.3 mph 53 % 0.00 in
23:18 42.4 °F 26.9 °F 29.95 in SW 0.4 mph 1.2 mph 54 % 0.00 in
23:23 42.5 °F 26.6 °F 29.94 in SW 1.0 mph 2.3 mph 53 % 0.00 in
23:28 42.5 °F 26.6 °F 29.95 in SW 0.9 mph 2.3 mph 53 % 0.00 in
23:33 42.5 °F 27.0 °F 29.94 in SW 0.2 mph 2.3 mph 54 % 0.00 in
23:38 42.5 °F 27.0 °F 29.94 in SW 0.4 mph 2.3 mph 54 % 0.00 in
23:43 42.6 °F 26.6 °F 29.94 in West 1.0 mph 2.3 mph 53 % 0.00 in
23:48 42.6 °F 26.6 °F 29.93 in West 2.0 mph 3.5 mph 53 % 0.00 in
23:53 42.6 °F 26.6 °F 29.94 in SW 1.3 mph 3.5 mph 53 % 0.00 in
23:58 42.7 °F 26.7 °F 29.93 in WSW 2.1 mph 3.5 mph 53 % 0.00 in
Crab Meadow Weather
Compliments of Weather Underground - 3 mb

Script developed by  Jim McMurry - jmcmurry@mwt.net Adapted for the template by  Wim van der Kuil - Leuven-Template.eu

Astronomy: February 1865 is the only month recorded in history not to have a full moon.